| time (UTC) | temp F | wind direction | speed knots | gust knots | rain 1hr in | rain 24hr in | rain mn in | humidity % | barometer mb |
| 20260507135212 | 55 | 327 | 0.9 | 1.7 | 0.00 | 0.00 | 0.00 | 55 | 1016.6 |
| 20260507134708 | 54 | 210 | 0.9 | 5.2 | 0.00 | 0.00 | 0.00 | 64 | 1016.5 |
| 20260507134205 | 54 | 10 | 0.0 | 0.0 | 0.00 | 0.00 | 0.00 | 65 | 1016.6 |
| 20260507133701 | 54 | 15 | 0.0 | 0.0 | 0.00 | 0.00 | 0.00 | 62 | 1016.8 |
| 20260507133158 | 53 | 20 | 0.0 | 0.0 | 0.00 | 0.00 | 0.00 | 60 | 1017.1 |
| 20260507132655 | 53 | 313 | 0.9 | 1.7 | 0.00 | 0.00 | 0.00 | 69 | 1017.0 |
| 20260507132151 | 52 | 357 | 0.0 | 0.0 | 0.00 | 0.00 | 0.00 | 70 | 1017.0 |
| 20260507131648 | 51 | 3 | 0.0 | 1.7 | 0.00 | 0.00 | 0.00 | 71 | 1016.8 |
| 20260507131146 | 51 | 6 | 0.0 | 0.0 | 0.00 | 0.00 | 0.00 | 76 | 1017.0 |
| 20260507130642 | 50 | 6 | 0.0 | 1.7 | 0.00 | 0.00 | 0.00 | 80 | 1017.0 |
| 20260507130140 | 48 | 7 | 0.0 | 0.0 | 0.00 | 0.00 | 0.00 | 83 | 1017.0 |
| 20260507125639 | 48 | 7 | 0.0 | 0.0 | 0.00 | 0.00 | 0.00 | 87 | 1016.8 |
| 20260507125136 | 47 | 3 | 0.0 | 0.0 | 0.00 | 0.00 | 0.00 | 90 | 1017.1 |
| 20260507124632 | 46 | 13 | 0.0 | 0.0 | 0.00 | 0.00 | 0.00 | 94 | 1017.0 |
| 20260507124130 | 45 | 13 | 0.0 | 0.0 | 0.00 | 0.00 | 0.00 | 96 | 1017.3 |
| 20260507123628 | 44 | 19 | 0.0 | 0.0 | 0.00 | 0.00 | 0.00 | 97 | 1017.3 |
| 20260507123125 | 44 | 19 | 0.0 | 0.0 | 0.00 | 0.00 | 0.00 | 98 | 1017.3 |
| 20260507122620 | 43 | 19 | 0.0 | 0.0 | 0.00 | 0.00 | 0.00 | 98 | 1017.1 |
| 20260507122116 | 43 | 26 | 0.0 | 0.0 | 0.00 | 0.00 | 0.00 | 98 | 1017.1 |
| 20260507121612 | 42 | 22 | 0.0 | 0.0 | 0.00 | 0.00 | 0.00 | 99 | 1017.2 |
| 20260507121108 | 42 | 24 | 0.0 | 0.0 | 0.00 | 0.00 | 0.00 | 99 | 1017.2 |
| 20260507120604 | 41 | 8 | 0.0 | 0.0 | 0.00 | 0.00 | 0.00 | 99 | 1017.4 |
| 20260507115557 | 40 | 8 | 0.0 | 0.0 | 0.00 | 0.00 | 0.00 | 99 | 1017.1 |
| 20260507115053 | 40 | 8 | 0.0 | 0.0 | 0.00 | 0.00 | 0.00 | 99 | 1017.0 |
| 20260507114549 | 39 | 8 | 0.0 | 0.0 | 0.00 | 0.00 | 0.00 | 99 | 1017.0 |
| 20260507114047 | 39 | 8 | 0.0 | 0.0 | 0.00 | 0.00 | 0.00 | 99 | 1017.0 |
| 20260507113543 | 39 | 9 | 0.0 | 0.0 | 0.00 | 0.00 | 0.00 | 99 | 1017.1 |
| 20260507113041 | 39 | 8 | 0.0 | 0.0 | 0.00 | 0.00 | 0.00 | 99 | 1017.0 |
| 20260507112538 | 38 | 4 | 0.0 | 0.0 | 0.00 | 0.00 | 0.00 | 99 | 1016.7 |
| 20260507112035 | 38 | 4 | 0.0 | 0.0 | 0.00 | 0.00 | 0.00 | 99 | 1016.8 |
| 20260507111532 | 38 | 4 | 0.0 | 0.0 | 0.00 | 0.00 | 0.00 | 99 | 1016.7 |
| 20260507111029 | 38 | 4 | 0.0 | 0.0 | 0.00 | 0.00 | 0.00 | 99 | 1016.8 |
| 20260507110525 | 38 | 357 | 0.0 | 0.0 | 0.00 | 0.00 | 0.00 | 99 | 1016.7 |
| 20260507110022 | 38 | 12 | 0.0 | 0.0 | 0.00 | 0.00 | 0.00 | 99 | 1016.7 |
| 20260507105519 | 38 | 12 | 0.0 | 0.0 | 0.00 | 0.00 | 0.00 | 99 | 1016.7 |
| 20260507105015 | 37 | 12 | 0.0 | 0.0 | 0.00 | 0.00 | 0.00 | 99 | 1016.8 |
| 20260507104513 | 37 | 13 | 0.0 | 0.0 | 0.00 | 0.00 | 0.00 | 99 | 1016.6 |
| 20260507104009 | 38 | 1 | 0.0 | 0.0 | 0.00 | 0.00 | 0.00 | 99 | 1016.5 |
| 20260507103505 | 38 | 1 | 0.0 | 0.0 | 0.00 | 0.00 | 0.00 | 99 | 1016.6 |
| 20260507103001 | 38 | 1 | 0.0 | 0.0 | 0.00 | 0.00 | 0.00 | 99 | 1016.4 |
| 20260507102458 | 38 | 1 | 0.0 | 0.0 | 0.00 | 0.00 | 0.00 | 99 | 1016.3 |
| 20260507101954 | 38 | 1 | 0.0 | 0.0 | 0.00 | 0.00 | 0.00 | 99 | 1016.3 |
| 20260507101455 | 38 | 1 | 0.0 | 0.0 | 0.00 | 0.00 | 0.00 | 98 | 1016.2 |
| 20260507100952 | 38 | 1 | 0.0 | 0.0 | 0.00 | 0.00 | 0.00 | 98 | 1016.1 |
| 20260507100449 | 38 | 1 | 0.0 | 0.0 | 0.00 | 0.00 | 0.00 | 98 | 1016.2 |
| 20260507095947 | 38 | 1 | 0.0 | 0.0 | 0.00 | 0.00 | 0.00 | 98 | 1016.1 |
| 20260507095445 | 38 | 1 | 0.0 | 0.0 | 0.00 | 0.00 | 0.00 | 98 | 1016.2 |
| 20260507094941 | 38 | 1 | 0.0 | 0.0 | 0.00 | 0.00 | 0.00 | 98 | 1016.2 |
| 20260507094437 | 39 | 1 | 0.0 | 0.0 | 0.00 | 0.00 | 0.00 | 98 | 1015.9 |
| 20260507093934 | 39 | 1 | 0.0 | 0.0 | 0.00 | 0.00 | 0.00 | 98 | 1016.1 |
| 20260507093432 | 39 | 1 | 0.0 | 0.0 | 0.00 | 0.00 | 0.00 | 98 | 1016.3 |
| 20260507092931 | 39 | 1 | 0.0 | 0.0 | 0.00 | 0.00 | 0.00 | 98 | 1016.1 |
| 20260507092426 | 39 | 1 | 0.0 | 0.0 | 0.00 | 0.00 | 0.00 | 98 | 1016.3 |
| 20260507091923 | 39 | 1 | 0.0 | 0.0 | 0.00 | 0.00 | 0.00 | 98 | 1016.3 |
| 20260507091420 | 39 | 1 | 0.0 | 0.0 | 0.00 | 0.00 | 0.00 | 98 | 1016.2 |
| 20260507090915 | 39 | 2 | 0.0 | 0.0 | 0.00 | 0.00 | 0.00 | 98 | 1016.1 |
| 20260507090412 | 39 | 358 | 0.0 | 0.0 | 0.00 | 0.00 | 0.00 | 98 | 1016.1 |
| 20260507085909 | 39 | 358 | 0.0 | 0.0 | 0.00 | 0.00 | 0.00 | 98 | 1016.3 |
| 20260507085406 | 40 | 358 | 0.0 | 0.0 | 0.00 | 0.00 | 0.00 | 98 | 1016.0 |
| 20260507084903 | 40 | 0 | 0.0 | 0.0 | 0.00 | 0.00 | 0.00 | 98 | 1016.1 |
| 20260507084359 | 40 | 0 | 0.0 | 0.0 | 0.00 | 0.00 | 0.00 | 98 | 1016.1 |
| 20260507083857 | 40 | 0 | 0.0 | 0.0 | 0.00 | 0.00 | 0.00 | 98 | 1016.2 |
| 20260507083353 | 40 | 358 | 0.0 | 0.0 | 0.00 | 0.00 | 0.00 | 98 | 1016.3 |
| 20260507082849 | 40 | 356 | 0.0 | 0.0 | 0.00 | 0.00 | 0.00 | 98 | 1016.2 |
| 20260507082345 | 40 | 356 | 0.0 | 0.0 | 0.00 | 0.00 | 0.00 | 98 | 1016.3 |
| 20260507081843 | 41 | 356 | 0.0 | 0.0 | 0.00 | 0.00 | 0.00 | 98 | 1016.4 |
| 20260507081338 | 41 | 357 | 0.0 | 0.0 | 0.00 | 0.00 | 0.00 | 97 | 1016.2 |
| 20260507080835 | 41 | 357 | 0.0 | 0.0 | 0.00 | 0.00 | 0.00 | 97 | 1016.3 |
| 20260507080331 | 41 | 357 | 0.0 | 0.0 | 0.00 | 0.00 | 0.00 | 97 | 1016.4 |
| 20260507075827 | 41 | 356 | 0.0 | 0.0 | 0.00 | 0.00 | 0.00 | 97 | 1016.2 |
| 20260507075323 | 41 | 3 | 0.0 | 0.0 | 0.00 | 0.00 | 0.00 | 96 | 1016.4 |
| 20260507074820 | 41 | 3 | 0.0 | 0.0 | 0.00 | 0.00 | 0.00 | 96 | 1016.4 |
| 20260507074317 | 41 | 3 | 0.0 | 0.0 | 0.00 | 0.00 | 0.00 | 96 | 1016.4 |
| 20260507073814 | 42 | 3 | 0.0 | 0.0 | 0.00 | 0.00 | 0.00 | 96 | 1016.4 |
| 20260507073311 | 42 | 4 | 0.0 | 0.0 | 0.00 | 0.00 | 0.00 | 96 | 1016.3 |
| 20260507072808 | 42 | 4 | 0.0 | 0.0 | 0.00 | 0.00 | 0.00 | 96 | 1016.2 |
| 20260507072307 | 42 | 4 | 0.0 | 0.0 | 0.00 | 0.00 | 0.00 | 96 | 1016.1 |
| 20260507071803 | 42 | 356 | 0.0 | 0.0 | 0.00 | 0.00 | 0.00 | 95 | 1016.1 |
| 20260507071259 | 42 | 356 | 0.0 | 0.0 | 0.00 | 0.00 | 0.00 | 95 | 1016.2 |
| 20260507070756 | 42 | 356 | 0.0 | 0.0 | 0.00 | 0.00 | 0.00 | 95 | 1016.3 |
| 20260507070253 | 42 | 356 | 0.0 | 0.0 | 0.00 | 0.00 | 0.00 | 94 | 1016.3 |
| 20260507065750 | 43 | 356 | 0.0 | 0.0 | 0.00 | 0.00 | 0.00 | 94 | 1016.0 |
| 20260507065247 | 43 | 356 | 0.0 | 0.0 | 0.00 | 0.00 | 0.00 | 93 | 1016.1 |
| 20260507064744 | 43 | 356 | 0.0 | 0.0 | 0.00 | 0.00 | 0.00 | 93 | 1016.2 |
| 20260507064243 | 44 | 356 | 0.0 | 0.0 | 0.00 | 0.00 | 0.00 | 92 | 1016.2 |
| 20260507063740 | 44 | 356 | 0.0 | 0.0 | 0.00 | 0.00 | 0.00 | 91 | 1016.3 |
| 20260507063236 | 44 | 356 | 0.0 | 0.0 | 0.00 | 0.00 | 0.00 | 91 | 1016.3 |
| 20260507062734 | 44 | 356 | 0.0 | 0.0 | 0.00 | 0.00 | 0.00 | 91 | 1016.2 |
| 20260507062231 | 45 | 356 | 0.0 | 0.0 | 0.00 | 0.00 | 0.00 | 90 | 1016.2 |
| 20260507061729 | 45 | 356 | 0.0 | 0.0 | 0.00 | 0.00 | 0.00 | 89 | 1016.4 |
| 20260507061226 | 45 | 356 | 0.0 | 0.0 | 0.00 | 0.00 | 0.00 | 89 | 1016.1 |
| 20260507060724 | 46 | 356 | 0.0 | 0.0 | 0.00 | 0.00 | 0.00 | 88 | 1016.3 |
| 20260507060221 | 46 | 356 | 0.0 | 0.0 | 0.00 | 0.00 | 0.00 | 88 | 1016.4 |
| 20260507055716 | 46 | 356 | 0.0 | 0.0 | 0.00 | 0.00 | 0.00 | 87 | 1016.5 |
| 20260507055212 | 47 | 356 | 0.0 | 0.0 | 0.00 | 0.00 | 0.00 | 86 | 1016.4 |
| 20260507054708 | 47 | 356 | 0.0 | 0.0 | 0.00 | 0.00 | 0.00 | 86 | 1016.5 |
| 20260507054206 | 48 | 356 | 0.0 | 0.0 | 0.00 | 0.00 | 0.00 | 85 | 1016.4 |
| 20260507053703 | 48 | 356 | 0.0 | 0.0 | 0.00 | 0.00 | 0.00 | 85 | 1016.5 |
| 20260507053201 | 48 | 356 | 0.0 | 0.0 | 0.00 | 0.00 | 0.00 | 84 | 1016.8 |
| 20260507052700 | 48 | 356 | 0.0 | 0.0 | 0.00 | 0.00 | 0.00 | 83 | 1016.8 |
| 20260507052155 | 48 | 356 | 0.0 | 0.0 | 0.00 | 0.00 | 0.00 | 82 | 1016.6 |
| 20260507051653 | 49 | 356 | 0.0 | 0.0 | 0.00 | 0.00 | 0.00 | 83 | 1016.8 |
| 20260507051149 | 49 | 356 | 0.0 | 0.0 | 0.00 | 0.00 | 0.00 | 83 | 1017.0 |
| 20260507050647 | 49 | 356 | 0.0 | 0.0 | 0.00 | 0.00 | 0.00 | 81 | 1016.8 |
| 20260507050143 | 49 | 356 | 0.0 | 0.0 | 0.00 | 0.00 | 0.00 | 82 | 1016.5 |
| 20260507045640 | 49 | 356 | 0.0 | 0.0 | 0.00 | 0.00 | 0.00 | 82 | 1016.6 |
| 20260507045137 | 50 | 356 | 0.0 | 0.0 | 0.00 | 0.00 | 0.00 | 82 | 1016.8 |
| 20260507044634 | 50 | 356 | 0.0 | 0.0 | 0.00 | 0.00 | 0.00 | 80 | 1017.0 |
| 20260507044126 | 50 | 356 | 0.0 | 0.0 | 0.00 | 0.00 | 0.00 | 81 | 1016.8 |
| 20260507043621 | 50 | 356 | 0.0 | 0.0 | 0.00 | 0.00 | 0.00 | 79 | 1017.0 |
| 20260507043119 | 50 | 356 | 0.0 | 0.0 | 0.00 | 0.00 | 0.00 | 79 | 1016.7 |
| 20260507042615 | 50 | 356 | 0.0 | 0.0 | 0.00 | 0.00 | 0.00 | 78 | 1016.7 |
| 20260507042110 | 50 | 356 | 0.0 | 0.0 | 0.00 | 0.00 | 0.00 | 77 | 1016.5 |
| 20260507041607 | 51 | 356 | 0.0 | 0.0 | 0.00 | 0.00 | 0.00 | 76 | 1016.7 |
| 20260507041104 | 51 | 356 | 0.0 | 0.0 | 0.00 | 0.00 | 0.00 | 80 | 1017.0 |
| 20260507040601 | 51 | 356 | 0.0 | 0.0 | 0.00 | 0.00 | 0.00 | 77 | 1016.8 |
| 20260507040057 | 51 | 356 | 0.0 | 0.0 | 0.00 | 0.58 | 0.58 | 76 | 1016.4 |
| 20260507035553 | 51 | 356 | 0.0 | 0.0 | 0.00 | 0.58 | 0.58 | 77 | 1016.5 |
| 20260507035049 | 51 | 356 | 0.0 | 0.0 | 0.00 | 0.58 | 0.58 | 76 | 1016.6 |
| 20260507034546 | 51 | 356 | 0.0 | 0.0 | 0.00 | 0.58 | 0.58 | 75 | 1016.6 |
| 20260507034044 | 51 | 356 | 0.0 | 0.0 | 0.00 | 0.58 | 0.58 | 75 | 1016.6 |
| 20260507033542 | 51 | 356 | 0.0 | 0.0 | 0.00 | 0.58 | 0.58 | 75 | 1016.5 |
| 20260507033038 | 51 | 356 | 0.0 | 0.0 | 0.00 | 0.58 | 0.58 | 74 | 1016.7 |
| 20260507032535 | 52 | 356 | 0.0 | 0.0 | 0.00 | 0.58 | 0.58 | 77 | 1016.7 |
| 20260507032031 | 52 | 356 | 0.0 | 0.0 | 0.00 | 0.58 | 0.58 | 75 | 1016.7 |
| 20260507031527 | 52 | 356 | 0.0 | 0.0 | 0.00 | 0.58 | 0.58 | 74 | 1017.0 |
| 20260507031025 | 52 | 356 | 0.0 | 0.0 | 0.00 | 0.58 | 0.58 | 74 | 1016.8 |
| 20260507030522 | 52 | 356 | 0.0 | 0.0 | 0.00 | 0.58 | 0.58 | 72 | 1016.7 |
| 20260507030020 | 52 | 356 | 0.0 | 0.0 | 0.00 | 0.58 | 0.58 | 73 | 1016.7 |
| 20260507025516 | 52 | 356 | 0.0 | 0.0 | 0.00 | 0.58 | 0.58 | 74 | 1016.7 |
| 20260507025014 | 53 | 356 | 0.0 | 0.0 | 0.00 | 0.58 | 0.58 | 75 | 1016.7 |
| 20260507024512 | 53 | 356 | 0.0 | 0.0 | 0.00 | 0.58 | 0.58 | 71 | 1016.6 |
| 20260507024008 | 53 | 356 | 0.0 | 0.0 | 0.00 | 0.58 | 0.58 | 72 | 1016.6 |
| 20260507023504 | 53 | 356 | 0.0 | 0.0 | 0.00 | 0.58 | 0.58 | 71 | 1016.6 |
| 20260507023001 | 53 | 356 | 0.0 | 0.0 | 0.00 | 0.58 | 0.58 | 69 | 1016.6 |
| 20260507022458 | 53 | 356 | 0.0 | 0.0 | 0.00 | 0.58 | 0.58 | 67 | 1016.8 |
| 20260507021953 | 53 | 356 | 0.0 | 0.0 | 0.00 | 0.58 | 0.58 | 69 | 1016.4 |
| 20260507021449 | 53 | 356 | 0.0 | 0.0 | 0.00 | 0.58 | 0.58 | 68 | 1016.4 |
| 20260507020947 | 54 | 356 | 0.0 | 0.0 | 0.00 | 0.58 | 0.58 | 69 | 1016.1 |
| 20260507020444 | 54 | 355 | 0.0 | 0.0 | 0.00 | 0.58 | 0.58 | 66 | 1016.2 |
| 20260507015940 | 54 | 355 | 0.0 | 0.0 | 0.00 | 0.58 | 0.58 | 67 | 1016.1 |
| 20260507015439 | 54 | 355 | 0.0 | 0.0 | 0.00 | 0.58 | 0.58 | 71 | 1016.0 |
| 20260507014935 | 54 | 355 | 0.0 | 0.0 | 0.00 | 0.58 | 0.58 | 67 | 1015.8 |
| 20260507014432 | 54 | 353 | 0.0 | 0.0 | 0.00 | 0.58 | 0.58 | 66 | 1016.0 |
| 20260507013928 | 54 | 342 | 0.0 | 0.0 | 0.00 | 0.58 | 0.58 | 67 | 1016.1 |
| 20260507013425 | 54 | 348 | 0.0 | 0.9 | 0.00 | 0.58 | 0.58 | 67 | 1015.8 |
| 20260507012923 | 54 | 359 | 0.0 | 1.7 | 0.00 | 0.58 | 0.58 | 66 | 1015.9 |
| 20260507012419 | 54 | 342 | 0.0 | 0.0 | 0.00 | 0.58 | 0.58 | 68 | 1016.0 |
| 20260507011911 | 55 | 325 | 0.0 | 0.9 | 0.00 | 0.58 | 0.58 | 73 | 1015.9 |
| 20260507011408 | 55 | 2 | 0.0 | 0.0 | 0.00 | 0.58 | 0.58 | 69 | 1015.9 |
| 20260507010907 | 55 | 2 | 0.0 | 0.0 | 0.00 | 0.58 | 0.58 | 72 | 1015.3 |
| 20260507010402 | 55 | 354 | 0.0 | 0.0 | 0.00 | 0.58 | 0.58 | 71 | 1015.5 |
| 20260507005900 | 55 | 354 | 0.0 | 0.0 | 0.00 | 0.58 | 0.58 | 72 | 1015.4 |
| 20260507005356 | 55 | 354 | 0.0 | 0.0 | 0.00 | 0.58 | 0.58 | 71 | 1015.4 |
| 20260507004853 | 55 | 357 | 0.0 | 0.0 | 0.00 | 0.58 | 0.58 | 72 | 1015.2 |
| 20260507004350 | 55 | 357 | 0.0 | 0.0 | 0.00 | 0.58 | 0.58 | 72 | 1015.0 |
| 20260507003850 | 56 | 344 | 0.0 | 0.0 | 0.00 | 0.58 | 0.58 | 71 | 1015.1 |
| 20260507003344 | 56 | 356 | 0.0 | 0.9 | 0.00 | 0.58 | 0.58 | 69 | 1015.0 |
| 20260507002839 | 56 | 351 | 0.0 | 0.0 | 0.00 | 0.58 | 0.58 | 71 | 1014.8 |
| 20260507002335 | 56 | 347 | 0.0 | 0.0 | 0.00 | 0.58 | 0.58 | 67 | 1014.9 |
| 20260507001833 | 56 | 358 | 0.0 | 0.0 | 0.00 | 0.58 | 0.58 | 69 | 1014.4 |
| 20260507001329 | 56 | 346 | 0.0 | 0.9 | 0.00 | 0.58 | 0.58 | 74 | 1014.5 |
| 20260507000826 | 57 | 352 | 0.0 | 0.9 | 0.00 | 0.58 | 0.58 | 73 | 1014.4 |
| 20260507000321 | 57 | 11 | 0.0 | 1.7 | 0.00 | 0.58 | 0.58 | 69 | 1014.5 |
| 20260506235818 | 57 | 351 | 0.0 | 0.0 | 0.00 | 0.58 | 0.58 | 73 | 1014.3 |
| 20260506235314 | 57 | 98 | 0.0 | 0.0 | 0.00 | 0.58 | 0.58 | 71 | 1014.1 |
| 20260506234810 | 57 | 5 | 0.0 | 1.7 | 0.00 | 0.58 | 0.58 | 76 | 1014.4 |
| 20260506234308 | 57 | 347 | 0.0 | 0.0 | 0.00 | 0.58 | 0.58 | 76 | 1014.2 |
| 20260506233806 | 57 | 358 | 0.0 | 0.0 | 0.00 | 0.58 | 0.58 | 75 | 1014.2 |
| 20260506233256 | 57 | 358 | 0.0 | 0.0 | 0.00 | 0.58 | 0.58 | 76 | 1014.1 |
| 20260506232753 | 57 | 358 | 0.0 | 0.0 | 0.00 | 0.58 | 0.58 | 75 | 1014.0 |
| 20260506232248 | 58 | 358 | 0.0 | 0.0 | 0.00 | 0.58 | 0.58 | 75 | 1014.3 |
| 20260506231745 | 58 | 358 | 0.0 | 0.0 | 0.00 | 0.58 | 0.58 | 71 | 1014.1 |
| 20260506231244 | 58 | 354 | 0.0 | 0.0 | 0.00 | 0.58 | 0.58 | 72 | 1014.3 |
| 20260506230740 | 58 | 352 | 0.0 | 0.0 | 0.00 | 0.58 | 0.58 | 73 | 1014.6 |
| 20260506230237 | 58 | 352 | 0.0 | 0.0 | 0.00 | 0.58 | 0.58 | 72 | 1014.7 |
| 20260506225733 | 59 | 350 | 0.0 | 0.0 | 0.00 | 0.58 | 0.58 | 66 | 1014.5 |
| 20260506225231 | 59 | 354 | 0.0 | 0.0 | 0.00 | 0.58 | 0.58 | 69 | 1014.6 |
| 20260506224726 | 59 | 349 | 0.0 | 0.0 | 0.00 | 0.58 | 0.58 | 65 | 1014.5 |
| 20260506224224 | 59 | 325 | 0.0 | 0.9 | 0.00 | 0.58 | 0.58 | 62 | 1014.4 |
| 20260506223720 | 60 | 357 | 0.0 | 0.0 | 0.00 | 0.58 | 0.58 | 64 | 1014.5 |
| 20260506223215 | 60 | 340 | 0.0 | 1.7 | 0.00 | 0.58 | 0.58 | 60 | 1014.5 |
| 20260506222713 | 60 | 346 | 0.0 | 0.0 | 0.00 | 0.58 | 0.58 | 65 | 1014.4 |
| 20260506222208 | 60 | 355 | 0.0 | 0.9 | 0.00 | 0.58 | 0.58 | 64 | 1014.3 |
| 20260506221707 | 61 | 347 | 0.0 | 0.0 | 0.00 | 0.58 | 0.58 | 61 | 1014.3 |
| 20260506221204 | 61 | 346 | 0.0 | 0.0 | 0.00 | 0.58 | 0.58 | 59 | 1014.2 |
| 20260506220701 | 61 | 343 | 0.0 | 0.0 | 0.00 | 0.58 | 0.58 | 64 | 1014.0 |
| 20260506220156 | 61 | 357 | 0.0 | 0.0 | 0.00 | 0.58 | 0.58 | 61 | 1014.1 |
| 20260506215653 | 62 | 345 | 0.0 | 0.0 | 0.00 | 0.58 | 0.58 | 58 | 1014.0 |
| 20260506215148 | 61 | 323 | 0.0 | 0.0 | 0.00 | 0.58 | 0.58 | 59 | 1014.1 |
| 20260506214645 | 62 | 355 | 0.0 | 0.9 | 0.00 | 0.58 | 0.58 | 59 | 1013.9 |
| 20260506214143 | 62 | 346 | 0.0 | 0.9 | 0.00 | 0.58 | 0.58 | 55 | 1013.8 |
| 20260506213641 | 63 | 329 | 0.0 | 0.0 | 0.00 | 0.58 | 0.58 | 54 | 1013.7 |
| 20260506213138 | 62 | 353 | 0.0 | 1.7 | 0.00 | 0.58 | 0.58 | 53 | 1013.5 |
| 20260506212635 | 63 | 321 | 0.0 | 0.9 | 0.00 | 0.58 | 0.58 | 52 | 1013.4 |
| 20260506212130 | 63 | 11 | 0.0 | 1.7 | 0.00 | 0.58 | 0.58 | 50 | 1013.5 |
| 20260506211626 | 63 | 3 | 0.9 | 2.6 | 0.00 | 0.58 | 0.58 | 50 | 1013.9 |
| 20260506211123 | 64 | 343 | 0.0 | 1.7 | 0.00 | 0.58 | 0.58 | 59 | 1013.7 |
| 20260506210620 | 64 | 55 | 0.0 | 0.9 | 0.00 | 0.58 | 0.58 | 54 | 1013.8 |
| 20260506210116 | 63 | 340 | 0.0 | 0.0 | 0.00 | 0.58 | 0.58 | 60 | 1013.7 |
| 20260506205613 | 63 | 337 | 0.0 | 0.9 | 0.00 | 0.58 | 0.58 | 58 | 1013.5 |
| 20260506205108 | 63 | 339 | 0.0 | 2.6 | 0.00 | 0.58 | 0.58 | 58 | 1013.7 |
| 20260506204606 | 62 | 335 | 0.0 | 0.0 | 0.00 | 0.58 | 0.58 | 54 | 1013.7 |
| 20260506204103 | 63 | 304 | 0.9 | 1.7 | 0.00 | 0.58 | 0.58 | 60 | 1013.7 |
| 20260506203601 | 63 | 353 | 0.0 | 0.0 | 0.00 | 0.58 | 0.58 | 59 | 1013.5 |
| 20260506203057 | 62 | 356 | 0.0 | 0.9 | 0.00 | 0.58 | 0.58 | 59 | 1013.5 |
| 20260506202555 | 63 | 4 | 1.7 | 2.6 | 0.00 | 0.58 | 0.58 | 56 | 1013.4 |
| 20260506202051 | 63 | 322 | 0.0 | 1.7 | 0.00 | 0.58 | 0.58 | 56 | 1013.6 |
| 20260506201549 | 64 | 346 | 1.7 | 2.6 | 0.00 | 0.58 | 0.58 | 57 | 1013.4 |
| 20260506201045 | 64 | 309 | 0.9 | 1.7 | 0.00 | 0.58 | 0.58 | 56 | 1013.4 |
| 20260506200541 | 64 | 269 | 0.9 | 1.7 | 0.00 | 0.58 | 0.58 | 56 | 1013.3 |
| 20260506200038 | 64 | 318 | 0.0 | 0.9 | 0.00 | 0.58 | 0.58 | 56 | 1013.3 |
| 20260506195535 | 65 | 8 | 1.7 | 2.6 | 0.00 | 0.58 | 0.58 | 58 | 1013.0 |
| 20260506195031 | 64 | 349 | 0.0 | 0.9 | 0.00 | 0.58 | 0.58 | 58 | 1012.9 |
| 20260506194529 | 64 | 242 | 0.9 | 7.0 | 0.00 | 0.58 | 0.58 | 61 | 1013.2 |
| 20260506194026 | 64 | 301 | 0.9 | 2.6 | 0.00 | 0.58 | 0.58 | 61 | 1013.3 |
| 20260506193523 | 64 | 246 | 0.9 | 5.2 | 0.00 | 0.58 | 0.58 | 61 | 1013.2 |
| 20260506193020 | 64 | 330 | 0.0 | 0.9 | 0.00 | 0.58 | 0.58 | 63 | 1013.3 |
| 20260506192517 | 64 | 299 | 0.9 | 1.7 | 0.00 | 0.58 | 0.58 | 58 | 1013.2 |
| 20260506192013 | 65 | 260 | 0.9 | 0.9 | 0.00 | 0.58 | 0.58 | 55 | 1013.4 |
| 20260506191510 | 65 | 314 | 0.0 | 1.7 | 0.00 | 0.58 | 0.58 | 59 | 1013.3 |
| 20260506191006 | 64 | 276 | 0.0 | 1.7 | 0.00 | 0.58 | 0.58 | 60 | 1013.5 |
| 20260506190503 | 64 | 348 | 0.0 | 3.5 | 0.00 | 0.58 | 0.58 | 61 | 1013.4 |
| 20260506185959 | 65 | 313 | 0.9 | 2.6 | 0.00 | 0.58 | 0.58 | 60 | 1013.6 |
| 20260506185457 | 64 | 329 | 0.9 | 0.9 | 0.00 | 0.58 | 0.58 | 61 | 1013.4 |
| 20260506184953 | 64 | 3 | 0.9 | 1.7 | 0.00 | 0.58 | 0.58 | 65 | 1013.5 |
| 20260506184451 | 64 | 289 | 0.9 | 1.7 | 0.00 | 0.58 | 0.58 | 60 | 1013.5 |
| 20260506183948 | 64 | 0 | 0.0 | 0.9 | 0.00 | 0.58 | 0.58 | 60 | 1013.5 |
| 20260506183443 | 62 | 9 | 0.0 | 0.9 | 0.00 | 0.58 | 0.58 | 70 | 1013.4 |
| 20260506182941 | 63 | 157 | 1.7 | 2.6 | 0.00 | 0.58 | 0.58 | 66 | 1013.4 |
| 20260506182438 | 62 | 146 | 0.9 | 1.7 | 0.00 | 0.58 | 0.58 | 65 | 1013.6 |
| 20260506181935 | 62 | 353 | 0.0 | 0.0 | 0.00 | 0.58 | 0.58 | 68 | 1013.4 |
| 20260506181433 | 61 | 330 | 0.0 | 0.9 | 0.00 | 0.58 | 0.58 | 67 | 1013.7 |
| 20260506180929 | 61 | 335 | 0.0 | 2.6 | 0.00 | 0.58 | 0.58 | 70 | 1013.8 |
| 20260506180425 | 61 | 314 | 0.0 | 1.7 | 0.00 | 0.58 | 0.58 | 72 | 1013.7 |
| 20260506175918 | 61 | 91 | 0.9 | 0.9 | 0.00 | 0.58 | 0.58 | 72 | 1013.6 |
| 20260506175414 | 61 | 265 | 0.0 | 0.9 | 0.00 | 0.58 | 0.58 | 75 | 1013.7 |
| 20260506174911 | 61 | 149 | 0.9 | 0.9 | 0.00 | 0.58 | 0.58 | 73 | 1013.6 |
| 20260506174409 | 60 | 322 | 0.0 | 1.7 | 0.00 | 0.58 | 0.58 | 73 | 1013.8 |
| 20260506173906 | 60 | 268 | 0.9 | 0.9 | 0.00 | 0.58 | 0.58 | 74 | 1013.9 |
| 20260506173402 | 59 | 351 | 0.9 | 2.6 | 0.00 | 0.58 | 0.58 | 71 | 1013.8 |
| 20260506172859 | 60 | 318 | 0.0 | 1.7 | 0.00 | 0.58 | 0.58 | 71 | 1014.1 |
| 20260506172355 | 61 | 353 | 0.0 | 2.6 | 0.00 | 0.58 | 0.58 | 76 | 1014.1 |
| 20260506171853 | 60 | 31 | 0.0 | 1.7 | 0.00 | 0.58 | 0.58 | 75 | 1013.9 |
| 20260506171350 | 60 | 337 | 0.9 | 2.6 | 0.00 | 0.58 | 0.58 | 73 | 1013.8 |
| 20260506170847 | 59 | 277 | 0.9 | 2.6 | 0.00 | 0.58 | 0.58 | 75 | 1013.9 |
| 20260506170344 | 60 | 216 | 0.9 | 1.7 | 0.00 | 0.58 | 0.58 | 74 | 1013.9 |
| 20260506165843 | 60 | 257 | 0.9 | 1.7 | 0.00 | 0.58 | 0.58 | 75 | 1014.0 |
| 20260506165340 | 59 | 343 | 0.0 | 1.7 | 0.00 | 0.58 | 0.58 | 80 | 1014.0 |
| 20260506164831 | 59 | 309 | 0.0 | 1.7 | 0.00 | 0.58 | 0.58 | 78 | 1013.8 |
| 20260506164327 | 59 | 204 | 1.7 | 2.6 | 0.00 | 0.58 | 0.58 | 77 | 1013.5 |
| 20260506163826 | 59 | 257 | 0.9 | 0.9 | 0.00 | 0.58 | 0.58 | 77 | 1013.6 |
| 20260506163325 | 59 | 249 | 1.7 | 2.6 | 0.00 | 0.58 | 0.58 | 77 | 1014.0 |
| 20260506162821 | 60 | 306 | 0.0 | 1.7 | 0.00 | 0.58 | 0.58 | 74 | 1013.7 |
| 20260506162319 | 59 | 335 | 0.0 | 0.9 | 0.00 | 0.58 | 0.58 | 83 | 1013.9 |
| 20260506161816 | 58 | 174 | 2.6 | 2.6 | 0.00 | 0.58 | 0.58 | 80 | 1014.1 |
| 20260506161314 | 57 | 336 | 1.7 | 3.5 | 0.00 | 0.58 | 0.58 | 85 | 1013.9 |
| 20260506160806 | 56 | 338 | 0.0 | 5.2 | 0.00 | 0.58 | 0.58 | 86 | 1014.1 |
| 20260506160302 | 56 | 339 | 0.0 | 0.0 | 0.00 | 0.58 | 0.58 | 86 | 1014.1 |
| 20260506155801 | 57 | 56 | 0.0 | 0.9 | 0.00 | 0.58 | 0.58 | 83 | 1014.0 |
| 20260506155257 | 55 | 305 | 0.0 | 0.9 | 0.00 | 0.58 | 0.58 | 89 | 1013.9 |
| 20260506153404 | 54 | 9 | 0.0 | 2.6 | 0.00 | 0.58 | 0.58 | 89 | 1013.8 |
| 20260506152901 | 54 | 22 | 0.0 | 0.9 | 0.00 | 0.58 | 0.58 | 91 | 1013.5 |
| 20260506152358 | 53 | 329 | 0.0 | 1.7 | 0.00 | 0.58 | 0.58 | 90 | 1013.5 |
| 20260506151856 | 53 | 321 | 0.0 | 0.0 | 0.00 | 0.58 | 0.58 | 93 | 1013.4 |
| 20260506151353 | 52 | 270 | 0.9 | 1.7 | 0.00 | 0.58 | 0.58 | 91 | 1013.3 |
| 20260506150850 | 52 | 239 | 0.9 | 0.9 | 0.00 | 0.58 | 0.58 | 95 | 1013.3 |
| 20260506150346 | 52 | 328 | 0.0 | 0.9 | 0.00 | 0.58 | 0.58 | 96 | 1013.4 |
| 20260506145843 | 51 | 342 | 0.0 | 0.9 | 0.00 | 0.58 | 0.58 | 96 | 1013.5 |
| 20260506145339 | 51 | 332 | 0.0 | 0.9 | 0.00 | 0.58 | 0.58 | 98 | 1013.4 |
| 20260506144837 | 51 | 343 | 0.0 | 0.9 | 0.00 | 0.58 | 0.58 | 98 | 1013.2 |
| 20260506144334 | 51 | 256 | 1.7 | 2.6 | 0.00 | 0.58 | 0.58 | 98 | 1013.2 |
| 20260506143832 | 51 | 329 | 0.0 | 0.9 | 0.00 | 0.58 | 0.58 | 98 | 1013.0 |
| 20260506143329 | 51 | 316 | 0.0 | 0.0 | 0.00 | 0.58 | 0.58 | 97 | 1013.1 |
| 20260506142827 | 51 | 280 | 0.9 | 2.6 | 0.00 | 0.58 | 0.58 | 97 | 1012.7 |
| 20260506142325 | 51 | 197 | 0.9 | 0.9 | 0.00 | 0.58 | 0.58 | 99 | 1012.7 |
| 20260506141823 | 50 | 346 | 0.0 | 1.7 | 0.00 | 0.58 | 0.58 | 99 | 1012.7 |
| 20260506141321 | 50 | 334 | 0.0 | 1.7 | 0.00 | 0.58 | 0.58 | 99 | 1012.4 |
| 20260506140819 | 50 | 232 | 0.0 | 0.9 | 0.00 | 0.58 | 0.58 | 99 | 1012.6 |
| 20260506140315 | 50 | 339 | 0.0 | 0.9 | 0.00 | 0.58 | 0.58 | 99 | 1012.6 |
| 20260506135812 | 50 | 253 | 0.9 | 0.9 | 0.00 | 0.58 | 0.58 | 99 | 1012.4 |